Location: Unspecified
(0.0000°N, 0.0000°E)
Time: 07:05:43
(UTC+00:00)

Vanguard 2 Rocket - Pass Details

Date: 16 October 2022
Orbit: 555 x 3321 km, 32.9° (Epoch: 06 December)

Event Time Altitude Azimuth Distance (km) Brightness Sun altitude
Rises 02:22:21 0° 311° (NW) 5,360 - -50.0°
Reaches altitude 10° 02:26:42 10° 315° (NW) 3,890 - -48.9°
Maximum altitude 02:35:41 55° 30° (NNE) 1,254 - -46.8°
Exits shadow 02:40:54 10° 108° (ESE) 2,307 9.5 -45.5°
Drops below altitude 10° 02:40:57 10° 108° (ESE) 2,326 9.6 -45.5°
Sets 02:42:57 0° 113° (ESE) 3,073 10.4 -45.0°
